Nantucket, MA

6:32 AM EDT on May 27, 2018 (GMT -0400)
Nantucket Memorial

Weather History for KACK - October, 2014

Change the Weather History Date:

Sunday, October 5, 2014

  Actual Average Record
Temperature  
Mean Temperature 57 °F -  
Max Temperature 64 °F 65 °F 75 °F (1971)
Min Temperature 50 °F 49 °F 36 °F (1965)
Degree Days  
Heating Degree Days 8    
Growing Degree Days 7 (Base 50)    
Moisture  
Dew Point 49 °F    
Average Humidity 73    
Maximum Humidity 94    
Minimum Humidity 46    
Precipitation  
Precipitation 0.03 in - - ()
Sea Level Pressure  
Sea Level Pressure 29.74 in    
Wind  
Wind Speed 11 mph (West)    
Max Wind Speed 20 mph    
Max Gust Speed 29 mph    
Visibility 10 miles    
Events Rain    
Averages and records for this station are not official NWS values.
T = Trace of Precipitation, MM = Missing Value Source: NWS Daily Summary

Daily Weather History Graph

Daily Weather History Graph

Search for Another Location

Airport or City:

Astronomy

Oct. 05, 2014 Rise Set
Actual Time 6:41 AM EDT 6:15 PM EDT
Civil Twilight 6:13 AM EDT 6:43 PM EDT
Nautical Twilight 5:41 AM EDT 7:14 PM EDT
Astronomical Twilight 5:09 AM EDT 7:47 PM EDT
Moon 4:32 PM EDT (10/5) 3:12 AM EDT (10/5)
Length of Visible Light 12h 29m
Length of Day
11h 34m
Waxing Gibbous, 89% of the Moon is Illuminated
Oct 5
Waxing Gibbous
Oct 8
Full
Oct 15
Last Quarter
Oct 23
New
Oct 30
First Quarter

Hourly Weather History & Observations

Time (EDT) Temp. Dew Point Humidity Pressure Visibility Wind Dir Wind Speed Gust Speed Precip Events Conditions
12:17 AM 64.4 °F 62.6 °F 94% 29.57 in 4.0 mi WSW 9.2 mph - 0.02 in Rain Light Rain
12:25 AM 64.4 °F 62.6 °F 94% 29.58 in 5.0 mi West 10.4 mph - 0.03 in Rain Light Rain
12:32 AM 64.4 °F 62.6 °F 94% 29.57 in 9.0 mi West 10.4 mph - 0.03 in   Overcast
12:41 AM 64.4 °F 62.6 °F 94% 29.57 in 10.0 mi West 6.9 mph - 0.03 in   Overcast
12:53 AM 64.0 °F 62.1 °F 93% 29.57 in 10.0 mi West 8.1 mph - 0.03 in   Overcast
1:53 AM 63.0 °F 61.0 °F 93% 29.57 in 10.0 mi West 10.4 mph - N/A   Overcast
2:53 AM 62.1 °F 60.1 °F 93% 29.58 in 10.0 mi West 9.2 mph - N/A   Overcast
3:53 AM 61.0 °F 59.0 °F 93% 29.60 in 10.0 mi WNW 10.4 mph - N/A   Overcast
4:53 AM 60.1 °F 57.0 °F 90% 29.64 in 10.0 mi West 8.1 mph - N/A   Overcast
5:53 AM 57.9 °F 53.1 °F 84% 29.66 in 10.0 mi West 8.1 mph - N/A   Scattered Clouds
6:53 AM 55.9 °F 52.0 °F 87% 29.68 in 10.0 mi West 9.2 mph - N/A   Clear
7:53 AM 57.0 °F 51.1 °F 81% 29.70 in 10.0 mi WNW 10.4 mph - N/A   Clear
8:53 AM 57.9 °F 50.0 °F 75% 29.73 in 10.0 mi West 15.0 mph - N/A   Clear
9:53 AM 59.0 °F 48.9 °F 69% 29.74 in 10.0 mi West 15.0 mph - N/A   Clear
10:53 AM 59.0 °F 46.0 °F 62% 29.76 in 10.0 mi West 17.3 mph - N/A   Clear
11:53 AM 61.0 °F 42.1 °F 50% 29.78 in 10.0 mi West 18.4 mph - N/A   Clear
12:53 PM 60.1 °F 39.9 °F 47% 29.79 in 10.0 mi West 19.6 mph 27.6 mph N/A   Clear
1:53 PM 60.1 °F 41.0 °F 49% 29.78 in 10.0 mi West 19.6 mph - N/A   Clear
2:53 PM 60.1 °F 39.9 °F 47% 29.80 in 10.0 mi WSW 18.4 mph 28.8 mph N/A   Clear
3:53 PM 59.0 °F 37.9 °F 46% 29.81 in 10.0 mi West 16.1 mph 25.3 mph N/A   Clear
4:53 PM 57.0 °F 39.0 °F 51% 29.83 in 10.0 mi WSW 13.8 mph - N/A   Clear
5:53 PM 55.0 °F 39.9 °F 57% 29.85 in 10.0 mi WSW 10.4 mph - N/A   Clear
6:53 PM 53.1 °F 41.0 °F 64% 29.87 in 10.0 mi West 6.9 mph - N/A   Clear
7:53 PM 52.0 °F 41.0 °F 66% 29.90 in 10.0 mi West 6.9 mph - N/A   Clear
8:53 PM 51.1 °F 41.0 °F 68% 29.92 in 10.0 mi West 8.1 mph - N/A   Clear
9:53 PM 50.0 °F 42.1 °F 74% 29.94 in 10.0 mi West 4.6 mph - N/A   Clear
10:53 PM 51.1 °F 41.0 °F 68% 29.95 in 10.0 mi West 6.9 mph - N/A   Clear
11:53 PM 52.0 °F 42.1 °F 69% 29.97 in 10.0 mi WNW 6.9 mph - N/A   Partly Cloudy